This is the latest recevied weather packets stored in our database for station/object K8GLX. If no packets are shown the sender has not sent any weather packets the latest 10 day(s).
| Time | Temp. | Humidity | Pressure | Rain* | Wind** | Luminosity | Snow |
|---|---|---|---|---|---|---|---|
| 1777808663 | 5.56° C | 63% | 1016 hPa | 0 mm | - | 63 W/m² | - |
| 1777808229 | 5.56° C | 64% | 1016.1 hPa | 0 mm | - | 56 W/m² | - |
| 1777807935 | 5° C | 65% | 1016 hPa | 0 mm | - | 52 W/m² | - |
| 1777807629 | 5° C | 66% | 1016.1 hPa | 0 mm | - | 63 W/m² | - |
| 1777807463 | 5° C | 66% | 1016 hPa | 0 mm | - | 49 W/m² | - |
| 1777807029 | 5° C | 67% | 1015.8 hPa | 0 mm | - | 54 W/m² | - |
| 1777806734 | 5° C | 68% | 1015.6 hPa | 0 mm | - | 50 W/m² | - |
| 1777806429 | 4.44° C | 69% | 1015.5 hPa | 0 mm | - | 45 W/m² | - |
| 1777806263 | 4.44° C | 70% | 1015.6 hPa | 0 mm | - | 35 W/m² | - |
| 1777805828 | 4.44° C | 71% | 1015.7 hPa | 0 mm | - | 29 W/m² | - |
| 1777805534 | 3.89° C | 72% | 1015.5 hPa | 0 mm | - | 28 W/m² | - |
| 1777805229 | 3.89° C | 73% | 1015.6 hPa | 0 mm | - | 20 W/m² | - |
| 1777804934 | 3.33° C | 73% | 1015.7 hPa | 0 mm | - | 15 W/m² | - |
| 1777804629 | 3.33° C | 73% | 1015.4 hPa | 0 mm | - | 11 W/m² | - |
| 1777804334 | 3.33° C | 73% | 1015.4 hPa | 0 mm | - | 8 W/m² | - |
| 1777804028 | 3.33° C | 74% | 1015.3 hPa | 0 mm | - | 6 W/m² | - |
| 1777803739 | 3.33° C | 74% | 1015.4 hPa | 0 mm | - | 4 W/m² | - |
| 1777803429 | 3.33° C | 74% | 1015.2 hPa | 0 mm | - | 2 W/m² | - |
| 1777803134 | 3.33° C | 74% | 1015.5 hPa | 0 mm | - | 0 W/m² | - |
| 1777802828 | 3.33° C | 75% | 1015.3 hPa | 0 mm | - | 0 W/m² | - |
| 1777802534 | 3.33° C | 75% | 1015.4 hPa | 0 mm | - | 0 W/m² | - |
| 1777802229 | 3.33° C | 75% | 1015.3 hPa | 0 mm | - | 0 W/m² | - |
| 1777802062 | 3.33° C | 75% | 1015.3 hPa | 0 mm | - | 0 W/m² | - |
| 1777801628 | 3.33° C | 75% | 1015.5 hPa | 0 mm | - | 0 W/m² | - |
| 1777801335 | 3.33° C | 75% | 1015.4 hPa | 0 mm | - | 0 W/m² | - |
* Rain latest hour (hover to see other rain measurements)
** Current wind speed in m/s (hover to see current wind gust speed)